TimeCDT,TemperatureF,Dew PointF,Humidity,Sea Level PressureIn,VisibilityMPH,Wind Direction,Wind SpeedMPH,Gust SpeedMPH,PrecipitationIn,Events,Conditions,WindDirDegrees,DateUTC
12:15 AM,-0.4,-5.8,78,30.30,10.0,NW,16.1,-,N/A,,Clear,310,2013-03-20 05:15:00
12:34 AM,-0.4,-5.8,78,30.30,10.0,NW,16.1,-,N/A,,Clear,310,2013-03-20 05:34:00
12:54 AM,-0.4,-5.8,78,30.30,10.0,NW,15.0,-,N/A,,Clear,310,2013-03-20 05:54:00
1:14 AM,-2.2,-7.6,78,30.30,10.0,NW,12.7,-,N/A,,Clear,320,2013-03-20 06:14:00
1:34 AM,-0.4,-5.8,78,30.30,10.0,NW,12.7,-,N/A,,Clear,310,2013-03-20 06:34:00
1:55 AM,-0.4,-5.8,78,30.30,10.0,NW,16.1,-,N/A,,Clear,320,2013-03-20 06:55:00
2:14 AM,-0.4,-5.8,78,30.30,10.0,NW,13.8,-,N/A,,Clear,310,2013-03-20 07:14:00
2:34 AM,-2.2,-7.6,78,30.31,10.0,NW,15.0,-,N/A,,Clear,320,2013-03-20 07:34:00
2:55 AM,-2.2,-7.6,78,30.31,10.0,NW,12.7,-,N/A,,Clear,310,2013-03-20 07:55:00
3:14 AM,-2.2,-7.6,78,30.30,10.0,NW,13.8,-,N/A,,Clear,310,2013-03-20 08:14:00
3:34 AM,-2.2,-7.6,78,30.30,10.0,NW,17.3,-,N/A,,Clear,310,2013-03-20 08:34:00
3:55 AM,-2.2,-7.6,78,30.30,10.0,NW,13.8,-,N/A,,Clear,310,2013-03-20 08:55:00
4:14 AM,-2.2,-7.6,78,30.30,10.0,NW,15.0,-,N/A,,Clear,310,2013-03-20 09:14:00
4:34 AM,-2.2,-9.4,71,30.30,10.0,NW,15.0,-,N/A,,Clear,310,2013-03-20 09:34:00
4:55 AM,-2.2,-7.6,78,30.30,10.0,NW,12.7,-,N/A,,Clear,320,2013-03-20 09:55:00
5:14 AM,-4.0,-9.4,78,30.30,10.0,NW,10.4,-,N/A,,Clear,320,2013-03-20 10:14:00
5:34 AM,-2.2,-9.4,71,30.31,10.0,NW,15.0,-,N/A,,Clear,320,2013-03-20 10:34:00
5:55 AM,-5.8,-9.4,84,30.31,10.0,NW,10.4,-,N/A,,Clear,320,2013-03-20 10:55:00
6:14 AM,-5.8,-11.2,77,30.31,10.0,NW,11.5,-,N/A,,Clear,310,2013-03-20 11:14:00
6:35 AM,-5.8,-11.2,77,30.32,10.0,NW,11.5,-,N/A,,Clear,320,2013-03-20 11:35:00
6:55 AM,-5.8,-9.4,84,30.32,10.0,NW,11.5,-,N/A,,Clear,320,2013-03-20 11:55:00
7:14 AM,-4.0,-9.4,78,30.32,10.0,NW,12.7,-,N/A,,Clear,310,2013-03-20 12:14:00
7:35 AM,-5.8,-11.2,77,30.33,10.0,NW,11.5,-,N/A,,Clear,320,2013-03-20 12:35:00
7:55 AM,-7.6,-11.2,84,30.33,10.0,NW,8.1,-,N/A,,Clear,320,2013-03-20 12:55:00
8:14 AM,-5.8,-9.4,84,30.33,10.0,NW,12.7,-,N/A,,Clear,320,2013-03-20 13:14:00
8:35 AM,-5.8,-9.4,84,30.32,10.0,NW,12.7,-,N/A,,Clear,320,2013-03-20 13:35:00
8:55 AM,-5.8,-9.4,84,30.32,10.0,NW,9.2,-,N/A,,Clear,320,2013-03-20 13:55:00
9:14 AM,-5.8,-9.4,84,30.33,10.0,NW,8.1,-,N/A,,Clear,310,2013-03-20 14:14:00
9:35 AM,-4.0,-9.4,78,30.33,10.0,NW,5.8,-,N/A,,Clear,320,2013-03-20 14:35:00
9:55 AM,-2.2,-7.6,78,30.32,10.0,NW,8.1,-,N/A,,Clear,320,2013-03-20 14:55:00
10:14 AM,-0.4,-7.6,72,30.31,10.0,NNW,4.6,-,N/A,,Clear,330,2013-03-20 15:14:00
10:55 AM,3.2,-4.0,72,30.31,10.0,NNW,9.2,-,N/A,,Clear,330,2013-03-20 15:55:00
11:14 AM,3.2,-2.2,78,30.31,10.0,NNW,10.4,-,N/A,,Clear,330,2013-03-20 16:14:00
11:35 AM,5.0,-2.2,72,30.31,10.0,NNW,12.7,-,N/A,,Clear,330,2013-03-20 16:35:00
11:54 AM,6.8,-0.4,72,30.30,10.0,NW,15.0,-,N/A,,Clear,320,2013-03-20 16:54:00
12:12 PM,6.8,1.4,79,30.30,10.0,NNW,15.0,20.7,N/A,,Clear,330,2013-03-20 17:12:00
12:35 PM,8.6,1.4,73,30.29,10.0,NNW,12.7,-,N/A,,Clear,330,2013-03-20 17:35:00
12:54 PM,8.6,1.4,73,30.28,10.0,NW,17.3,-,N/A,,Clear,320,2013-03-20 17:54:00
1:15 PM,10.4,1.4,67,30.28,10.0,NW,17.3,-,N/A,,Clear,320,2013-03-20 18:15:00
1:34 PM,10.4,3.2,73,30.27,10.0,NNW,13.8,-,N/A,,Clear,330,2013-03-20 18:34:00
1:54 PM,10.4,3.2,73,30.27,10.0,NNW,12.7,-,N/A,,Clear,330,2013-03-20 18:54:00
2:15 PM,12.2,3.2,67,30.25,10.0,NNW,17.3,-,N/A,,Clear,330,2013-03-20 19:15:00
2:34 PM,12.2,3.2,67,30.25,10.0,NW,18.4,-,N/A,,Clear,320,2013-03-20 19:34:00
2:54 PM,12.2,3.2,67,30.25,10.0,NNW,17.3,24.2,N/A,,Clear,330,2013-03-20 19:54:00
3:15 PM,12.2,3.2,67,30.24,10.0,NNW,16.1,-,N/A,,Clear,330,2013-03-20 20:15:00
3:34 PM,12.2,3.2,67,30.24,10.0,NNW,16.1,-,N/A,,Clear,330,2013-03-20 20:34:00
3:54 PM,12.2,3.2,67,30.24,10.0,NNW,16.1,-,N/A,,Clear,330,2013-03-20 20:54:00
4:15 PM,12.2,3.2,67,30.23,10.0,NNW,19.6,-,N/A,,Clear,330,2013-03-20 21:15:00
4:34 PM,12.2,3.2,67,30.23,10.0,NNW,18.4,-,N/A,,Clear,340,2013-03-20 21:34:00
4:54 PM,12.2,3.2,67,30.22,10.0,NNW,17.3,-,N/A,,Clear,340,2013-03-20 21:54:00
5:15 PM,12.2,3.2,67,30.22,10.0,NNW,17.3,-,N/A,,Clear,340,2013-03-20 22:15:00
5:34 PM,12.2,3.2,67,30.22,10.0,North,15.0,-,N/A,,Clear,350,2013-03-20 22:34:00
5:54 PM,12.2,3.2,67,30.22,10.0,North,16.1,-,N/A,,Clear,350,2013-03-20 22:54:00
6:15 PM,10.4,3.2,73,30.21,10.0,North,17.3,-,N/A,,Clear,350,2013-03-20 23:15:00
6:34 PM,10.4,3.2,73,30.21,10.0,NNW,15.0,-,N/A,,Clear,340,2013-03-20 23:34:00
6:55 PM,10.4,1.4,67,30.21,10.0,NNW,12.7,-,N/A,,Clear,340,2013-03-20 23:55:00
7:15 PM,8.6,1.4,73,30.21,10.0,NNW,10.4,-,N/A,,Clear,340,2013-03-21 00:15:00
7:34 PM,8.6,1.4,73,30.21,10.0,NNW,8.1,-,N/A,,Clear,340,2013-03-21 00:34:00
7:55 PM,6.8,-0.4,72,30.22,10.0,NNW,9.2,-,N/A,,Clear,330,2013-03-21 00:55:00
8:15 PM,3.2,-0.4,85,30.21,10.0,NNW,10.4,-,N/A,,Clear,330,2013-03-21 01:15:00
8:34 PM,5.0,-0.4,78,30.21,10.0,North,13.8,-,N/A,,Clear,350,2013-03-21 01:34:00
8:55 PM,6.8,-0.4,72,30.21,10.0,North,11.5,-,N/A,,Clear,350,2013-03-21 01:55:00
9:14 PM,5.0,-0.4,78,30.21,10.0,NNW,10.4,-,N/A,,Clear,340,2013-03-21 02:14:00
9:34 PM,1.4,-4.0,78,30.21,10.0,WNW,8.1,-,N/A,,Clear,290,2013-03-21 02:34:00
9:55 PM,-0.4,-5.8,78,30.21,10.0,NW,5.8,-,N/A,,Clear,320,2013-03-21 02:55:00
10:14 PM,-0.4,-4.0,85,30.21,10.0,North,6.9,-,N/A,,Clear,350,2013-03-21 03:14:00
10:34 PM,-0.4,-5.8,78,30.20,10.0,North,6.9,-,N/A,,Clear,350,2013-03-21 03:34:00
10:55 PM,-0.4,-5.8,78,30.20,10.0,North,5.8,-,N/A,,Clear,350,2013-03-21 03:55:00
11:14 PM,-0.4,-5.8,78,30.20,10.0,NNW,3.5,-,N/A,,Clear,330,2013-03-21 04:14:00
11:35 PM,-2.2,-7.6,78,30.20,10.0,Calm,Calm,-,N/A,,Clear,0,2013-03-21 04:35:00
11:55 PM,-2.2,-5.8,85,30.19,10.0,North,4.6,-,N/A,,Clear,10,2013-03-21 04:55:00